weather.gov     
National Weather Service

Hourly Weather Roundup
NWS Homepage
This page is being discontinued on March 12, 2014.
The same data is available at this site. Please update your bookmarks.
Thank you, and we apologize for the inconvenience.
Please send an email to SR-SRH.Webmaster@noaa.gov with any concerns.


Current Version
Previous Version:    01  02  03  04  05  06  07  08  09  10  11  12  13  14  15  16  17  18  19  20  21  22  23  24  25  26  27  28  29  30  
   31  32  33  34  35  36  37  38  39  40  41  42  43  44  45  46  47  48  49  50  51  52  53  54  55  56  57  58  59  60  
[Printable]
171
NZUS43 KILX 270810
HWRILX

AREA WEATHER ROUNDUP
NATIONAL WEATHER SERVICE, LINCOLN IL
200 AM CST THU NOV 27 2014


CITY           SKY/WX    TMP DP  RH WIND       PRES   REMARKS
BLOOMINGTON    PTCLDY    22  19  88 NW10      30.25R WCI  11
CHAMPAIGN      PTCLDY    23  19  85 N9        30.22R WCI  13
DECATUR        CLEAR     24  19  81 N13       30.25R WCI  12
FLORA          PTCLDY    30  29  97 N8        30.22R FOG     WCI  22
GALESBURG      CLOUDY    23  21  92 NW7       30.30R WCI  14
JACKSONVILLE   CLOUDY    28  23  84 NW7       30.32R WCI  20
LACON          MOCLDY    21  17  85 NW5       30.29R WCI  15
LAWRENCEVILLE  CLOUDY    31  28  89 N10       30.20R FOG     WCI  22
LITCHFIELD     CLOUDY    27  24  86 N10       30.27R WCI  17
$$


CITY           SKY/WX    TMP DP  RH WIND       PRES   REMARKS
LINCOLN        MOCLDY    23  20  87 NW3       30.30R
MACOMB         CLOUDY    23  22  96 NW8       30.34R FOG     WCI  14
MATTOON        MOCLDY    26  21  81 N10       30.21R WCI  16
MT CARMEL AP   MIX PCPN  32  30  93 N7        30.19R WCI  26
OLNEY-NOBLE AP CLOUDY    30  28  93 N7        30.22R FOG     WCI  23
PARIS          MOCLDY    28  23  84 N6        30.22R WCI  21
PEORIA         MOCLDY    24  17  74 NW6       30.29R WCI  17
PONTIAC        CLOUDY    26  23  87 NW13      30.25R FOG     WCI  15
RANTOUL        CLEAR     24  20  85 NW7       30.22R WCI  16
ROBINSON       CLOUDY    30  26  86 N9        30.21R WCI  22
SPRINGFIELD    CLOUDY    26  21  81 NW8       30.29R WCI  18
TAYLORVILLE    CLOUDY    25  21  86 N9        30.27R WCI  15
$$

...REGIONAL REPORTS...


CITY           SKY/WX    TMP DP  RH WIND       PRES   REMARKS
CHICAGO O`HARE CLOUDY    25  20  81 NW13      30.19R WCI  14
KANKAKEE       CLOUDY   N/A N/A N/A NW8       30.21R HAZE
MOLINE         MOCLDY    24  19  81 NW9       30.31R WCI  14
MOUNT VERNON   CLOUDY    30  27  86 CALM      30.23R
PITTSFIELD     CLOUDY    27  23  86 NW13      30.33R WCI  16
QUINCY         CLOUDY    27  23  85 N10       30.33R FOG     WCI  17
ROCKFORD       CLOUDY    20  16  84 NW7       30.27R FOG     WCI  11
$$


CITY           SKY/WX    TMP DP  RH WIND       PRES   REMARKS
BURLINGTON     CLOUDY    26  24  92 NW8       30.32R FOG     WCI  18
CEDAR RAPIDS   CLOUDY    25  22  88 NW16      30.32R WCI  12
DES MOINES     FLURRIES  20  15  81 NW22      30.42R WCI   3
KIRKSVILLE     CLOUDY    30  27  88 NW10      30.36R FOG     WCI  21
OTTUMWA        CLOUDY    25  21  85 NW21      30.37R WCI  11
ST LOUIS       LGT SNOW  32  27  81 N13       30.31R FOG     WCI  22
$$


CITY           SKY/WX    TMP DP  RH WIND       PRES   REMARKS
TERRE HAUTE    CLOUDY    29  22  75 N8        30.19R WCI  21
EVANSVILLE     LGT SNOW  33  30  88 N9        30.19R FOG     WCI  25
INDIANAPOLIS   FLURRIES  28  21  75 N9        30.14R WCI  19
LAFAYETTE      PTCLDY    23  19  85 NW7       30.19R WCI  15
MADISON        CLOUDY    22  19  89 NW5       30.25R WCI  16
MILWAUKEE      MOCLDY    22  16  78 NW8       30.20R WCI  12
$$






U.S. Dept. of Commerce
NOAA National Weather Service
1325 East West Highway
Silver Spring, MD 20910
E-mail: w-nws.webmaster@noaa.gov
Page last modified: May 16, 2007
NATIONAL WEATHER SERVICE: for Safety, for Work, for Fun - FOR LIFE